period_start,C,m1,H,J0,J1,J2,J3,J4,J5,JA,JB,JC,JD,JJ,JK,JN,#
2018-04-24 00:01:51,0.13,2.84,0.00,26.76,29.47,32.29,13.54,48.63,999.93,2016.00,2408.84,2376.45,2712.81,600.17,579.02,23.98,0000 0000 0000 0000 000000
2018-04-24 00:06:52,0.18,2.85,0.00,26.77,29.50,32.30,13.54,48.57,999.89,2016.00,2406.44,2374.74,2710.91,599.99,578.90,24.03,0000 0000 0000 0000 000000
2018-04-24 00:11:53,0.22,2.86,0.00,26.76,29.50,32.32,13.59,48.58,999.55,2016.00,2403.21,2372.60,2708.40,599.97,578.69,24.08,0000 0000 0000 0000 000000
2018-04-24 00:16:55,0.22,2.87,0.00,26.76,29.52,32.33,13.59,48.69,999.53,2016.00,2399.97,2370.38,2705.90,600.18,578.76,24.13,0000 0000 0000 0000 000000
2018-04-24 00:21:56,0.18,2.88,0.00,26.79,29.53,32.35,13.47,48.52,999.53,2015.99,2397.04,2368.53,2703.66,600.09,578.70,24.18,0000 0000 0000 0000 000000
2018-04-24 00:26:57,0.11,2.89,0.00,26.82,29.55,32.36,13.49,48.48,999.53,2015.98,2395.28,2367.30,2702.21,599.61,578.26,24.23,0000 0000 0000 0000 000000
2018-04-24 00:31:58,0.13,2.90,0.00,26.81,29.56,32.39,13.49,48.52,999.53,2015.95,2393.39,2366.15,2700.64,599.90,578.44,24.28,0000 0000 0000 0000 000000
2018-04-24 00:37:00,0.17,2.90,0.00,26.82,29.57,32.41,13.53,48.63,999.55,2015.96,2391.15,2364.63,2698.93,599.91,578.38,24.33,0000 0000 0000 0000 000000
2018-04-24 00:42:01,0.18,2.91,0.00,26.82,29.59,32.42,13.43,48.55,999.58,2015.88,2388.35,2362.71,2696.75,599.71,578.30,24.38,0000 0000 0000 0000 000000
2018-04-24 00:47:02,0.12,2.92,0.00,26.83,29.60,32.42,13.61,48.71,999.53,2015.66,2385.92,2361.16,2694.89,600.07,578.57,24.43,0000 0000 0000 0000 000000
2018-04-24 00:52:04,0.11,2.93,0.00,26.87,29.62,32.44,13.47,48.55,999.53,2015.34,2383.87,2359.71,2693.24,599.94,578.40,24.48,0000 0000 0000 0000 000000
2018-04-24 00:57:05,0.13,2.93,0.00,26.88,29.63,32.45,13.45,48.63,999.54,2015.20,2381.85,2358.37,2691.60,599.71,578.14,24.53,0000 0000 0000 0000 000000
2018-04-24 01:02:07,0.12,2.94,0.00,26.89,29.65,32.45,13.53,48.58,999.53,2015.12,2379.95,2357.06,2690.10,600.12,578.50,24.58,0000 0000 0000 0000 000000
2018-04-24 01:07:08,0.13,2.95,0.00,26.91,29.66,32.48,13.40,48.46,999.53,2015.09,2378.19,2355.77,2688.62,599.66,578.07,24.63,0000 0000 0000 0000 000000
2018-04-24 01:12:09,0.12,2.95,0.00,26.91,29.67,32.49,13.49,48.57,999.53,2015.02,2376.25,2354.41,2687.07,600.04,578.43,24.68,0000 0000 0000 0000 000000
2018-04-24 01:17:10,0.12,2.96,0.00,26.95,29.70,32.51,13.43,48.50,999.53,2015.02,2374.48,2353.23,2685.63,599.79,578.11,24.73,0000 0000 0000 0000 000000
2018-04-24 01:22:11,0.13,2.96,0.00,26.97,29.71,32.53,13.48,48.50,999.54,2015.00,2372.53,2351.92,2684.11,599.90,578.17,24.78,0000 0000 0000 0000 000000
2018-04-24 01:27:12,0.14,2.97,0.00,26.98,29.72,32.54,13.50,48.57,999.54,2015.00,2370.61,2350.57,2682.54,600.10,578.29,24.83,0000 0000 0000 0000 000000
2018-04-24 01:32:13,0.14,2.98,0.00,27.00,29.74,32.55,13.58,48.62,999.54,2014.98,2368.64,2349.20,2680.84,599.98,578.08,24.88,0000 0000 0000 0000 000000
2018-04-24 01:37:15,0.14,2.99,0.00,27.01,29.75,32.58,13.51,48.59,999.55,2014.98,2366.77,2347.76,2679.27,600.01,578.20,24.93,0000 0000 0000 0000 000000
2018-04-24 01:42:16,0.13,2.99,0.00,27.03,29.77,32.58,13.54,48.68,999.59,2014.97,2365.00,2346.46,2677.60,600.01,578.25,24.98,0000 0000 0000 0000 000000
2018-04-24 01:47:17,0.15,3.00,0.00,27.08,29.78,32.60,13.59,48.67,999.92,2014.89,2362.85,2344.87,2675.84,600.15,578.42,25.03,0000 0000 0000 0000 000000
2018-04-24 01:52:19,0.11,3.01,0.00,27.10,29.80,32.61,13.48,48.61,999.95,2014.68,2360.70,2343.42,2674.01,599.73,578.07,25.08,0000 0000 0000 0000 000000
2018-04-24 01:57:20,0.11,3.01,0.00,27.10,29.81,32.63,13.45,48.54,999.91,2014.35,2358.71,2341.98,2672.47,599.81,578.05,25.13,0000 0000 0000 0000 000000
2018-04-24 02:02:21,0.14,3.02,0.00,27.12,29.82,32.64,13.51,48.52,999.64,2014.17,2356.60,2340.60,2670.77,599.80,577.85,25.18,0000 0000 0000 0000 000000
2018-04-24 02:07:22,0.17,3.03,0.00,27.13,29.85,32.65,13.57,48.64,999.70,2014.10,2354.19,2338.91,2668.83,600.34,578.40,25.23,0000 0000 0000 0000 000000
2018-04-24 02:12:24,0.19,3.04,0.00,27.18,29.86,32.68,13.58,48.64,999.54,2014.02,2351.46,2337.07,2666.62,600.38,578.31,25.28,0000 0000 0000 0000 000000
2018-04-24 02:17:25,0.25,3.05,0.00,27.19,29.87,32.70,13.48,48.62,999.53,2014.00,2347.94,2334.71,2663.96,599.82,577.50,25.33,0000 0000 0000 0000 000000
2018-04-24 02:22:26,0.26,3.06,0.00,27.21,29.90,32.71,13.52,48.59,999.53,2014.00,2344.08,2332.20,2661.03,600.11,577.87,25.38,0000 0000 0000 0000 000000
2018-04-24 02:27:27,0.22,3.07,0.00,27.24,29.91,32.73,13.50,48.63,999.53,2014.00,2340.91,2330.02,2658.53,600.23,578.05,25.43,0000 0000 0000 0000 000000
2018-04-24 02:32:29,0.24,3.09,0.00,27.30,29.92,32.75,13.51,48.58,999.54,2014.00,2337.66,2327.79,2655.97,600.03,577.76,25.48,0000 0000 0000 0000 000000
2018-04-24 02:37:30,0.28,3.10,0.00,27.32,29.95,32.77,13.46,48.55,999.54,2013.99,2333.88,2325.21,2653.01,599.74,577.40,25.53,0000 0000 0000 0000 000000
2018-04-24 02:42:31,0.21,3.11,0.00,27.32,29.96,32.79,13.43,48.51,999.53,2013.98,2330.56,2323.00,2650.44,599.82,577.42,25.58,0000 0000 0000 0000 000000
2018-04-24 02:47:32,0.22,3.12,0.00,27.37,29.98,32.82,13.46,48.61,999.54,2013.97,2327.71,2321.03,2648.14,599.77,577.23,25.63,0000 0000 0000 0000 000000
2018-04-24 02:52:34,0.22,3.13,0.00,27.41,30.00,32.83,13.30,48.42,999.54,2013.86,2324.29,2318.69,2645.42,599.43,576.99,25.68,0000 0000 0000 0000 000000
2018-04-24 02:57:35,0.14,3.14,0.00,27.44,30.02,32.85,13.51,48.52,999.55,2013.51,2321.79,2316.87,2643.37,599.89,577.27,25.73,0000 0000 0000 0000 000000
2018-04-24 03:02:37,0.13,3.15,0.00,27.44,30.05,32.87,13.44,48.53,999.63,2013.17,2319.40,2315.21,2641.40,599.97,577.39,25.78,0000 0000 0000 0000 000000
2018-04-24 03:07:38,0.16,3.16,0.00,27.45,30.07,32.90,13.52,48.59,1000.01,2013.06,2317.27,2313.66,2639.62,600.26,577.76,25.83,0000 0000 0000 0000 000000
2018-04-24 03:12:39,0.12,3.16,0.00,27.47,30.10,32.92,13.44,48.52,1000.01,2013.01,2315.47,2312.34,2637.97,599.89,577.59,25.88,0000 0000 0000 0000 000000
2018-04-24 03:17:41,0.15,3.17,0.00,27.49,30.12,32.94,13.43,48.62,1000.01,2013.00,2313.45,2310.89,2636.34,599.69,577.25,25.93,0000 0000 0000 0000 000000
2018-04-24 03:22:42,0.22,3.18,0.00,27.49,30.14,32.97,13.41,48.55,1000.04,2013.00,2310.72,2308.96,2634.10,599.82,577.39,25.98,0000 0000 0000 0000 000000
2018-04-24 03:27:43,0.16,3.19,0.00,27.50,30.16,32.98,13.53,48.58,1000.02,2012.99,2308.28,2307.28,2632.12,600.11,577.57,26.03,0000 0000 0000 0000 000000
2018-04-24 03:32:45,0.16,3.20,0.00,27.55,30.18,32.99,13.57,48.63,1000.07,2012.98,2306.22,2305.74,2630.35,600.07,577.51,26.08,0000 0000 0000 0000 000000
2018-04-24 03:37:46,0.14,3.21,0.00,27.57,30.20,33.02,13.56,48.62,1000.04,2012.90,2304.09,2304.22,2628.52,600.16,577.51,26.13,0000 0000 0000 0000 000000
2018-04-24 03:42:47,0.15,3.21,0.00,27.57,30.22,33.04,13.48,48.59,1000.16,2012.76,2302.04,2302.81,2626.75,599.95,577.48,26.18,0000 0000 0000 0000 000000
2018-04-24 03:47:48,0.10,3.22,0.00,27.58,30.24,33.06,13.45,48.60,1000.09,2012.29,2299.84,2301.30,2624.90,599.82,577.16,26.23,0000 0000 0000 0000 000000
2018-04-24 03:52:49,0.20,3.23,0.00,27.56,30.25,33.08,13.45,48.52,1000.05,2012.13,2297.13,2299.49,2622.85,599.92,577.42,26.28,0000 0000 0000 0000 000000
2018-04-24 03:57:50,0.20,3.24,0.00,27.58,30.27,33.09,13.54,48.63,1000.05,2012.08,2294.21,2297.49,2620.62,599.95,577.49,26.33,0000 0000 0000 0000 000000
2018-04-24 04:02:51,0.23,3.25,0.00,27.56,30.29,33.12,13.45,48.54,1000.03,2012.01,2291.12,2295.37,2618.15,599.90,577.32,26.38,0000 0000 0000 0000 000000
2018-04-24 04:07:52,0.17,3.26,0.00,27.56,30.30,33.14,13.49,48.52,1000.02,2012.00,2288.57,2293.65,2616.15,599.98,577.42,26.43,0000 0000 0000 0000 000000
2018-04-24 04:12:53,0.16,3.27,0.00,27.55,30.32,33.15,13.37,48.60,1000.04,2012.00,2286.31,2292.04,2614.22,599.57,577.09,26.48,0000 0000 0000 0000 000000
2018-04-24 04:17:55,0.18,3.28,0.00,27.55,30.33,33.17,13.48,48.89,1000.05,2012.00,2284.11,2290.46,2612.37,600.08,577.52,26.53,0000 0000 0000 0000 000000
2018-04-24 04:22:56,0.17,3.29,0.00,27.57,30.35,33.17,13.47,48.71,1000.09,2012.00,2281.84,2288.86,2610.47,599.95,577.38,26.58,0000 0000 0000 0000 000000
2018-04-24 04:27:58,0.15,3.29,0.00,27.58,30.35,33.19,13.50,48.78,1000.19,2011.99,2279.69,2287.46,2608.70,600.03,577.53,26.63,0000 0000 0000 0000 000000
2018-04-24 04:32:59,0.15,3.30,0.00,27.56,30.37,33.19,13.42,48.81,1000.08,2011.97,2277.68,2285.87,2606.94,599.67,577.22,26.68,0000 0000 0000 0000 000000
2018-04-24 04:38:00,0.15,3.31,0.00,27.53,30.37,33.20,13.48,48.87,1000.19,2011.96,2275.64,2284.50,2605.27,599.81,577.26,26.73,0000 0000 0000 0000 000000
2018-04-24 04:43:01,0.14,3.32,0.00,27.54,30.39,33.21,13.49,48.75,1000.49,2011.92,2273.62,2283.03,2603.57,599.86,577.67,26.78,0000 0000 0000 0000 000000
2018-04-24 04:48:03,0.16,3.32,0.00,27.53,30.40,33.21,13.48,48.70,1000.50,2011.89,2271.61,2281.56,2601.78,599.89,577.60,26.83,0000 0000 0000 0000 000000
2018-04-24 04:53:04,0.13,3.33,0.00,27.49,30.40,33.21,13.56,48.81,1000.50,2011.79,2269.52,2280.20,2600.15,600.26,578.06,26.89,0000 0000 0000 0000 000000
2018-04-24 04:58:05,0.15,3.34,0.00,27.50,30.40,33.23,13.41,48.69,1000.50,2011.68,2267.53,2278.69,2598.43,599.74,577.56,26.94,0000 0000 0000 0000 000000
2018-04-24 05:03:07,0.14,3.35,0.00,27.50,30.41,33.22,13.48,48.61,1000.50,2011.64,2265.48,2277.31,2596.71,599.70,577.51,26.99,0000 0000 0000 0000 000000
2018-04-24 05:08:07,0.14,3.35,0.00,27.49,30.42,33.23,13.50,48.65,1000.50,2011.38,2263.49,2275.81,2594.98,600.19,577.96,27.04,0000 0000 0000 0000 000000
2018-04-24 05:13:09,0.15,3.36,0.00,27.50,30.42,33.23,13.42,48.52,1000.52,2011.48,2261.47,2274.46,2593.41,599.62,577.54,27.09,0000 0000 0000 0000 000000
2018-04-24 05:18:10,0.15,3.37,0.00,27.48,30.42,33.23,13.55,48.62,1000.57,2011.46,2259.47,2273.06,2591.74,600.36,578.25,27.14,0000 0000 0000 0000 000000
2018-04-24 05:23:11,0.16,3.38,0.00,27.44,30.42,33.23,13.52,48.63,1000.67,2011.48,2257.53,2271.72,2590.12,599.75,577.79,27.19,0000 0000 0000 0000 000000
2018-04-24 05:28:12,0.14,3.39,0.00,27.42,30.42,33.22,13.54,48.68,1000.98,2011.48,2255.62,2270.33,2588.53,600.03,578.25,27.24,0000 0000 0000 0000 000000
2018-04-24 05:33:13,0.13,3.39,0.00,27.41,30.42,33.22,13.54,48.64,1000.99,2011.31,2253.63,2268.85,2586.83,600.30,578.39,27.29,0000 0000 0000 0000 000000
2018-04-24 05:38:14,0.15,3.40,0.00,27.45,30.42,33.22,13.51,48.58,1001.00,2011.41,2251.74,2267.60,2585.36,599.77,578.01,27.34,0000 0000 0000 0000 000000
2018-04-24 05:43:15,0.15,3.41,0.00,27.43,30.42,33.22,13.51,48.65,1001.00,2011.50,2249.97,2266.35,2583.85,599.58,577.83,27.39,0000 0000 0000 0000 000000
2018-04-24 05:48:17,0.14,3.42,0.00,27.42,30.42,33.22,13.59,48.64,1001.01,2011.49,2248.12,2265.01,2582.34,600.16,578.43,27.44,0000 0000 0000 0000 000000
2018-04-24 05:53:18,0.16,3.42,0.00,27.40,30.42,33.21,13.55,48.57,1001.19,2011.75,2246.43,2263.75,2580.89,600.16,578.54,27.49,0000 0000 0000 0000 000000
2018-04-24 05:58:19,0.14,3.43,0.00,27.42,30.42,33.21,13.53,48.59,1001.47,2011.77,2244.76,2262.60,2579.59,600.12,578.82,27.54,0000 0000 0000 0000 000000
2018-04-24 06:03:20,0.11,3.44,0.00,27.38,30.42,33.21,13.58,48.61,1001.52,2011.91,2243.39,2261.55,2578.37,600.20,578.77,27.59,0000 0000 0000 0000 000000
2018-04-24 06:08:21,0.12,3.44,0.00,27.40,30.42,33.20,13.53,48.58,1001.62,2011.84,2241.72,2260.30,2576.87,599.99,578.65,27.64,0000 0000 0000 0000 000000
2018-04-24 06:13:22,0.15,3.45,0.00,27.39,30.42,33.20,13.50,48.77,1001.95,2011.77,2239.82,2258.82,2575.16,600.05,578.97,27.69,0000 0000 0000 0000 000000
2018-04-24 06:18:24,0.14,3.46,0.00,27.40,30.42,33.21,13.55,48.68,1001.97,2011.70,2237.96,2257.40,2573.46,600.32,579.07,27.74,0000 0000 0000 0000 000000
2018-04-24 06:23:25,0.09,3.46,0.00,27.36,30.42,33.21,13.49,48.62,1001.97,2011.52,2236.34,2256.19,2572.03,599.94,578.84,27.79,0000 0000 0000 0000 000000
2018-04-24 06:28:26,0.15,3.47,0.00,27.35,30.42,33.21,13.57,48.69,1002.00,2011.51,2234.63,2254.88,2570.57,600.09,579.04,27.84,0000 0000 0000 0000 000000
2018-04-24 06:33:27,0.13,3.48,0.00,27.33,30.42,33.20,13.51,48.75,1002.01,2011.37,2232.70,2253.48,2568.85,599.83,578.78,27.89,0000 0000 0000 0000 000000
2018-04-24 06:38:28,0.19,3.49,0.00,27.33,30.42,33.20,13.58,48.78,1002.01,2011.22,2230.30,2251.72,2566.79,600.13,579.17,27.94,0000 0000 0000 0000 000000
2018-04-24 06:43:29,0.20,3.50,0.00,27.36,30.42,33.19,13.56,48.78,1002.06,2011.19,2227.59,2249.84,2564.55,600.10,579.07,27.99,0000 0000 0000 0000 000000
2018-04-24 06:48:31,0.16,3.51,0.00,27.38,30.42,33.19,13.59,48.87,1002.01,2011.15,2225.57,2248.20,2562.60,599.91,578.82,28.04,0000 0000 0000 0000 000000
2018-04-24 06:53:32,0.20,3.51,0.00,27.40,30.42,33.17,13.57,48.86,1002.14,2011.08,2223.19,2246.40,2560.49,600.35,579.29,28.09,0000 0000 0000 0000 000000
2018-04-24 06:58:33,0.19,3.52,0.00,27.43,30.42,33.16,13.55,48.83,1002.38,2011.06,2220.72,2244.56,2558.54,600.12,578.94,28.14,0000 0000 0000 0000 000000
2018-04-24 07:03:34,0.19,3.53,0.00,27.38,30.42,33.17,13.56,48.83,1002.38,2011.04,2218.24,2242.81,2556.56,600.07,579.25,28.19,0000 0000 0000 0000 000000
2018-04-24 07:08:35,0.19,3.54,0.00,27.36,30.42,33.17,13.51,48.91,1002.45,2011.06,2215.81,2241.05,2554.50,600.08,579.27,28.24,0000 0000 0000 0000 000000
2018-04-24 07:13:37,0.19,3.55,0.00,27.38,30.42,33.16,13.52,49.05,1002.46,2011.08,2213.22,2239.31,2552.37,599.90,579.06,28.29,0000 0000 0000 0000 000000
2018-04-24 07:18:38,0.22,3.56,0.00,27.34,30.42,33.16,13.54,48.96,1002.46,2011.06,2210.44,2237.48,2550.11,599.97,579.32,28.34,0000 0000 0000 0000 000000
2018-04-24 07:23:39,0.21,3.58,0.00,27.32,30.42,33.17,13.58,49.01,1002.47,2011.02,2207.64,2235.54,2547.81,599.94,579.33,28.39,0000 0000 0000 0000 000000
2018-04-24 07:28:41,0.22,3.59,0.00,27.30,30.42,33.17,13.53,48.92,1002.46,2011.02,2205.00,2233.64,2545.62,599.82,579.16,28.44,0000 0000 0000 0000 000000
2018-04-24 07:33:42,0.20,3.60,0.00,27.26,30.42,33.17,13.56,48.98,1002.49,2011.01,2202.38,2231.80,2543.46,599.86,579.33,28.49,0000 0000 0000 0000 000000
2018-04-24 07:38:44,0.22,3.61,0.00,27.25,30.40,33.16,13.50,48.91,1002.64,2011.03,2199.71,2229.92,2541.28,600.31,579.86,28.54,0000 0000 0000 0000 000000
2018-04-24 07:43:45,0.21,3.62,0.00,27.24,30.40,33.16,13.53,49.04,1002.93,2011.04,2197.05,2228.01,2539.07,599.79,579.47,28.59,0000 0000 0000 0000 000000
2018-04-24 07:48:46,0.20,3.63,0.00,27.22,30.40,33.16,13.54,48.91,1002.95,2011.04,2194.41,2226.16,2536.89,599.84,579.61,28.64,0000 0000 0000 0000 000000
2018-04-24 07:53:48,0.21,3.64,0.00,27.20,30.40,33.16,13.67,48.95,1002.95,2011.06,2191.79,2224.31,2534.71,600.39,580.00,28.69,0000 0000 0000 0000 000000
2018-04-24 07:58:49,0.20,3.65,0.00,27.16,30.39,33.15,13.60,48.98,1002.96,2011.06,2189.21,2222.46,2532.57,599.95,579.83,28.74,0000 0000 0000 0000 000000
2018-04-24 08:03:50,0.21,3.66,0.00,27.15,30.38,33.16,13.61,49.17,1003.22,2011.04,2186.63,2220.59,2530.36,600.15,580.26,28.79,0000 0000 0000 0000 000000
2018-04-24 08:08:51,0.22,3.67,0.00,27.14,30.37,33.16,13.48,49.02,1003.37,2011.04,2184.06,2218.69,2528.21,599.80,579.96,28.84,0000 0000 0000 0000 000000
2018-04-24 08:13:52,0.21,3.68,0.00,27.11,30.37,33.14,13.60,48.92,1003.42,2011.02,2181.38,2216.78,2525.92,600.08,580.33,28.89,0000 0000 0000 0000 000000
2018-04-24 08:18:53,0.21,3.69,0.00,27.08,30.35,33.13,13.49,48.94,1003.43,2011.06,2178.78,2214.90,2523.77,599.61,579.86,28.94,0000 0000 0000 0000 000000
2018-04-24 08:23:54,0.20,3.70,0.00,27.04,30.35,33.13,13.55,48.91,1003.44,2011.08,2176.28,2213.11,2521.69,599.98,580.34,28.99,0000 0000 0000 0000 000000
2018-04-24 08:28:56,0.21,3.71,0.00,27.02,30.34,33.15,13.64,49.08,1003.55,2011.13,2173.89,2211.34,2519.66,600.22,580.70,29.04,0000 0000 0000 0000 000000
2018-04-24 08:33:57,0.23,3.73,0.00,27.02,30.32,33.15,13.58,49.10,1003.52,2011.36,2171.55,2209.60,2517.61,600.01,580.52,29.09,0000 0000 0000 0000 000000
2018-04-24 08:38:58,0.20,3.74,0.00,27.00,30.32,33.15,13.61,49.13,1003.63,2011.40,2169.08,2207.77,2515.54,600.08,580.69,29.14,0000 0000 0000 0000 000000
2018-04-24 08:43:59,0.20,3.75,0.00,26.97,30.30,33.16,13.60,49.10,1003.84,2011.44,2166.65,2205.98,2513.49,599.78,580.52,29.19,0000 0000 0000 0000 000000
2018-04-24 08:49:01,0.22,3.76,0.00,26.92,30.30,33.27,13.67,49.18,1003.92,2011.73,2164.22,2204.33,2511.51,600.05,580.96,29.24,0000 0000 0000 0000 000000
2018-04-24 08:54:02,0.21,3.77,0.00,26.88,30.27,33.27,13.64,49.17,1003.92,2011.84,2161.83,2202.59,2509.49,600.28,581.22,29.29,0000 0000 0000 0000 000000
2018-04-24 08:59:03,0.20,3.78,0.00,26.87,30.26,33.26,13.63,49.06,1003.93,2011.92,2159.49,2200.83,2507.54,600.12,581.07,29.34,0000 0000 0000 0000 000000
2018-04-24 09:04:04,0.20,3.79,0.00,26.82,30.25,33.26,13.61,49.26,1003.97,2011.95,2157.07,2199.18,2505.51,599.86,581.01,29.39,0000 0000 0000 0000 000000
2018-04-24 09:09:06,0.19,3.80,0.00,26.79,30.23,33.22,13.56,49.13,1004.08,2011.99,2154.85,2197.51,2503.61,599.89,581.14,29.44,0000 0000 0000 0000 000000
2018-04-24 09:14:07,0.19,3.81,0.00,26.75,30.22,33.21,13.63,49.30,1004.20,2011.99,2152.60,2195.85,2501.70,600.02,581.42,29.49,0000 0000 0000 0000 000000
2018-04-24 09:19:08,0.19,3.82,0.00,26.74,30.20,33.17,13.67,49.19,1004.33,2011.99,2150.26,2194.16,2499.77,599.96,581.32,29.54,0000 0000 0000 0000 000000
2018-04-24 09:24:10,0.18,3.83,0.00,26.72,30.18,33.15,13.71,49.35,1004.39,2011.99,2148.10,2192.58,2497.91,600.07,581.56,29.59,0000 0000 0000 0000 000000
2018-04-24 09:29:11,0.19,3.84,0.00,26.66,30.16,33.13,13.58,49.32,1004.41,2011.99,2145.85,2190.90,2496.04,599.58,581.36,29.64,0000 0000 0000 0000 000000
2018-04-24 09:34:12,0.17,3.85,0.00,26.61,30.14,33.08,13.59,49.24,1004.42,2012.00,2143.58,2189.36,2494.32,599.94,581.76,29.69,0000 0000 0000 0000 000000
2018-04-24 09:39:14,0.18,3.86,0.00,26.59,30.12,33.06,13.61,49.25,1004.43,2012.01,2141.43,2187.79,2492.55,599.80,581.64,29.74,0000 0000 0000 0000 000000
2018-04-24 09:44:15,0.18,3.87,0.00,26.56,30.10,33.02,13.67,49.28,1004.42,2012.08,2139.31,2186.27,2490.73,599.72,581.64,29.79,0000 0000 0000 0000 000000
2018-04-24 09:49:16,0.19,3.88,0.00,26.52,30.07,32.99,13.60,49.18,1004.45,2012.19,2137.23,2184.74,2488.95,599.91,581.89,29.84,0000 0000 0000 0000 000000
2018-04-24 09:54:18,0.22,3.89,0.00,26.47,30.05,32.96,13.59,49.33,1004.42,2012.66,2135.15,2183.25,2487.28,599.78,581.86,29.89,0000 0000 0000 0000 000000
2018-04-24 09:59:19,0.22,3.90,0.00,26.45,30.02,32.92,13.58,49.23,1004.54,2012.92,2133.02,2181.70,2485.49,599.52,581.58,29.94,0000 0000 0000 0000 000000
2018-04-24 10:04:20,0.17,3.91,0.00,26.39,30.00,32.89,13.58,49.38,1004.56,2012.98,2130.90,2180.18,2483.69,599.78,582.05,29.99,0000 0000 0000 0000 000000
2018-04-24 10:09:21,0.18,3.92,0.00,26.35,29.97,32.87,13.70,49.34,1004.85,2012.99,2128.80,2178.63,2481.89,600.33,582.80,30.04,0000 0000 0000 0000 000000
2018-04-24 10:14:23,0.16,3.93,0.00,26.32,29.95,32.83,13.66,49.35,1004.89,2012.99,2126.73,2177.11,2480.14,600.16,582.74,30.09,0000 0000 0000 0000 000000
2018-04-24 10:19:24,0.17,3.94,0.00,26.27,29.91,32.81,13.62,49.48,1004.90,2012.99,2124.76,2175.66,2478.45,599.80,582.54,30.14,0000 0000 0000 0000 000000
2018-04-24 10:24:25,0.16,3.94,0.00,26.22,29.89,32.77,13.68,49.30,1004.98,2013.00,2122.77,2174.33,2476.74,600.13,582.96,30.19,0000 0000 0000 0000 000000
2018-04-24 10:29:26,0.18,3.95,0.00,26.18,29.86,32.72,13.67,49.36,1005.08,2013.05,2120.84,2172.89,2475.10,599.89,582.91,30.24,0000 0000 0000 0000 000000
2018-04-24 10:34:28,0.17,3.96,0.00,26.18,29.83,32.70,13.66,49.33,1004.94,2013.15,2118.98,2171.50,2473.47,600.05,583.04,30.29,0000 0000 0000 0000 000000
2018-04-24 10:39:29,0.20,3.97,0.00,26.13,29.80,32.67,13.68,49.34,1004.99,2013.47,2117.03,2170.07,2471.80,599.93,582.94,30.34,0000 0000 0000 0000 000000
2018-04-24 10:44:30,0.19,3.98,0.00,26.06,29.77,32.63,13.71,49.44,1004.99,2013.88,2115.34,2168.79,2470.41,600.15,583.37,30.40,0000 0000 0000 0000 000000
2018-04-24 10:49:31,0.16,3.99,0.00,26.05,29.74,32.61,13.63,49.55,1005.00,2013.98,2113.57,2167.61,2468.89,599.66,582.84,30.45,0000 0000 0000 0000 000000
2018-04-24 10:54:33,0.15,4.00,0.00,25.99,29.71,32.58,13.71,49.45,1005.24,2013.99,2111.82,2166.37,2467.51,599.80,583.23,30.50,0000 0000 0000 0000 000000
2018-04-24 10:59:34,0.12,4.00,0.00,25.92,29.68,32.53,13.81,49.44,1005.38,2013.99,2110.40,2165.15,2466.12,600.08,583.88,30.55,0000 0000 0000 0000 000000
2018-04-24 11:04:35,0.14,4.01,0.00,25.88,29.64,32.51,13.69,49.59,1005.40,2014.00,2108.79,2163.94,2464.74,599.96,583.68,30.60,0000 0000 0000 0000 000000
2018-04-24 11:09:36,0.13,4.02,0.00,25.86,29.61,32.50,13.76,49.43,1005.39,2014.11,2107.36,2162.87,2463.52,600.43,584.23,30.65,0000 0000 0000 0000 000000
2018-04-24 11:14:37,0.22,4.03,0.00,25.83,29.58,32.45,13.72,49.53,1005.43,2014.58,2105.77,2161.76,2462.12,600.08,583.87,30.70,0000 0000 0000 0000 000000
2018-04-24 11:19:39,0.16,4.04,0.00,25.79,29.54,32.39,13.68,49.49,1005.67,2014.85,2104.10,2160.54,2460.67,599.84,584.06,30.75,0000 0000 0000 0000 000000
2018-04-24 11:24:40,0.14,4.04,0.00,25.77,29.51,32.37,13.67,49.45,1005.64,2014.96,2102.47,2159.42,2459.42,599.94,584.03,30.80,0000 0000 0000 0000 000000
2018-04-24 11:29:41,0.14,4.05,0.00,25.70,29.47,32.33,13.67,49.47,1005.85,2014.99,2100.77,2158.17,2457.93,599.84,584.23,30.85,0000 0000 0000 0000 000000
2018-04-24 11:34:43,0.14,4.06,0.00,25.66,29.43,32.28,13.74,49.52,1005.87,2015.00,2099.09,2156.95,2456.57,600.26,584.74,30.90,0000 0000 0000 0000 000000
2018-04-24 11:39:44,0.18,4.07,0.00,25.62,29.39,32.24,13.74,49.44,1005.87,2015.02,2097.26,2155.58,2455.05,599.98,584.59,30.95,0000 0000 0000 0000 000000
2018-04-24 11:44:45,0.18,4.08,0.00,25.58,29.36,32.24,13.70,49.57,1005.87,2015.25,2095.43,2154.24,2453.49,599.87,584.44,31.00,0000 0000 0000 0000 000000
2018-04-24 11:49:46,0.21,4.09,0.00,25.54,29.32,32.19,13.72,49.52,1005.87,2015.80,2093.67,2153.02,2451.98,599.90,584.64,31.05,0000 0000 0000 0000 000000
2018-04-24 11:54:48,0.16,4.10,0.00,25.50,29.28,32.16,13.71,49.60,1005.87,2015.97,2091.99,2151.82,2450.61,599.97,584.78,31.10,0000 0000 0000 0000 000000
2018-04-24 11:59:49,0.13,4.10,0.00,25.44,29.24,32.10,13.65,49.52,1005.87,2015.99,2090.42,2150.69,2449.35,599.70,584.83,31.15,0000 0000 0000 0000 000000
2018-04-24 12:04:50,0.13,4.11,0.00,25.41,29.20,32.08,13.74,49.48,1005.87,2015.99,2088.83,2149.67,2448.05,600.52,585.46,31.20,0000 0000 0000 0000 000000
2018-04-24 12:09:51,0.13,4.12,0.00,25.38,29.16,32.05,13.74,49.48,1005.87,2016.01,2087.44,2148.55,2446.75,600.24,585.26,31.25,0000 0000 0000 0000 000000
2018-04-24 12:14:52,0.14,4.12,0.00,25.33,29.12,32.02,13.72,49.50,1005.89,2016.02,2085.81,2147.40,2445.47,600.06,585.14,31.30,0000 0000 0000 0000 000000
2018-04-24 12:19:53,0.16,4.13,0.00,25.32,29.08,31.95,13.75,49.54,1005.90,2016.29,2084.40,2146.40,2444.30,600.30,585.43,31.35,0000 0000 0000 0000 000000
2018-04-24 12:24:54,0.16,4.14,0.00,25.27,29.04,31.90,13.78,49.53,1005.95,2016.70,2082.90,2145.29,2443.07,600.19,585.43,31.40,0000 0000 0000 0000 000000
2018-04-24 12:29:56,0.13,4.15,0.00,25.20,29.00,31.88,13.74,49.61,1005.93,2016.98,2081.54,2144.38,2441.94,600.33,585.75,31.45,0000 0000 0000 0000 000000
2018-04-24 12:34:57,0.13,4.15,0.00,25.15,28.96,31.84,13.74,49.61,1005.89,2016.99,2080.00,2143.36,2440.69,599.96,585.46,31.50,0000 0000 0000 0000 000000
2018-04-24 12:39:58,0.12,4.16,0.00,25.09,28.92,31.81,13.64,49.67,1005.94,2017.01,2078.62,2142.34,2439.60,599.77,585.60,31.55,0000 0000 0000 0000 000000
2018-04-24 12:44:59,0.13,4.17,0.00,25.08,28.88,31.77,13.71,49.64,1005.94,2017.12,2077.16,2141.32,2438.42,599.80,585.57,31.60,0000 0000 0000 0000 000000
2018-04-24 12:50:01,0.19,4.18,0.00,25.02,28.84,31.75,13.68,49.73,1005.92,2017.63,2075.76,2140.33,2437.28,599.59,585.43,31.65,0000 0000 0000 0000 000000
2018-04-24 12:55:02,0.13,4.18,0.00,24.95,28.79,31.66,13.68,49.67,1005.92,2017.95,2074.42,2139.37,2436.13,599.96,585.86,31.70,0000 0000 0000 0000 000000